| time (UTC) | temp F | wind direction | speed MPH | gust MPH | rain 1hr in | rain 24hr in | rain mn in | humidity % | barometer mb |
| 20260904110037 | 84 | 299 | 2.0 | 4.0 | 0.00 | 0.00 | 0.00 | 40 | 1018.9 |
| 20260904104529 | 82 | 302 | 2.0 | 7.0 | 0.00 | 0.00 | 0.00 | 41 | 1019.2 |
| 20260904103025 | 82 | 340 | 3.0 | 5.0 | 0.00 | 0.00 | 0.00 | 45 | 1019.4 |
| 20260904101521 | 81 | 327 | 2.0 | 5.0 | 0.00 | 0.00 | 0.00 | 45 | 1019.7 |
| 20260904100018 | 80 | 268 | 2.0 | 5.0 | 0.00 | 0.00 | 0.00 | 46 | 1019.9 |
| 20260904094515 | 79 | 318 | 1.0 | 6.0 | 0.00 | 0.00 | 0.00 | 48 | 1020.2 |
| 20260904093014 | 78 | 337 | 2.0 | 5.0 | 0.00 | 0.00 | 0.00 | 50 | 1020.4 |
| 20260904091510 | 77 | 316 | 0.0 | 4.0 | 0.00 | 0.00 | 0.00 | 52 | 1020.5 |
| 20260904090008 | 76 | 338 | 3.0 | 6.0 | 0.00 | 0.00 | 0.00 | 52 | 1020.7 |
| 20260904084506 | 76 | 18 | 3.0 | 6.0 | 0.00 | 0.00 | 0.00 | 52 | 1020.8 |
| 20260904083003 | 75 | 337 | 3.0 | 8.0 | 0.00 | 0.00 | 0.00 | 54 | 1021.0 |
| 20260904081600 | 74 | 34 | 1.0 | 5.0 | 0.00 | 0.00 | 0.00 | 55 | 1021.1 |
| 20260904080058 | 73 | 43 | 1.0 | 8.0 | 0.00 | 0.00 | 0.00 | 58 | 1021.2 |
| 20260904074615 | 72 | 302 | 3.0 | 5.0 | 0.00 | 0.00 | 0.00 | 60 | 1021.3 |
| 20260904073051 | 71 | 360 | 2.0 | 6.0 | 0.00 | 0.00 | 0.00 | 62 | 1021.3 |
| 20260904071551 | 70 | 298 | 3.0 | 5.0 | 0.00 | 0.00 | 0.00 | 64 | 1021.5 |
| 20260904070049 | 70 | 355 | 4.0 | 7.0 | 0.00 | 0.00 | 0.00 | 67 | 1021.7 |
| 20260904064550 | 69 | 31 | 2.0 | 6.0 | 0.00 | 0.00 | 0.00 | 70 | 1021.7 |
| 20260904063104 | 67 | 292 | 2.0 | 5.0 | 0.00 | 0.00 | 0.00 | 73 | 1021.8 |
| 20260904061546 | 66 | 304 | 1.0 | 3.0 | 0.00 | 0.00 | 0.00 | 75 | 1021.6 |
| 20260904060107 | 65 | 317 | 3.0 | 4.0 | 0.00 | 0.00 | 0.00 | 77 | 1021.5 |
| 20260904054545 | 64 | 342 | 2.0 | 5.0 | 0.00 | 0.00 | 0.00 | 78 | 1021.6 |
| 20260904053043 | 64 | 308 | 1.0 | 3.0 | 0.00 | 0.00 | 0.00 | 78 | 1021.5 |
| 20260904051540 | 64 | 308 | 1.0 | 3.0 | 0.00 | 0.00 | 0.00 | 78 | 1021.4 |
| 20260904050038 | 64 | 298 | 0.0 | 2.0 | 0.00 | 0.00 | 0.00 | 78 | 1021.3 |
| 20260904044546 | 64 | 298 | 1.0 | 3.0 | 0.00 | 0.00 | 0.00 | 78 | 1021.1 |
| 20260904043134 | 65 | 307 | 0.0 | 2.0 | 0.00 | 0.00 | 0.00 | 77 | 1021.0 |
| 20260904041534 | 65 | 307 | 0.0 | 2.0 | 0.00 | 0.00 | 0.00 | 77 | 1020.9 |
| 20260904040030 | 65 | 342 | 0.0 | 2.0 | 0.00 | 0.00 | 0.00 | 76 | 1020.9 |
| 20260904034528 | 66 | 342 | 0.0 | 3.0 | 0.00 | 0.00 | 0.00 | 76 | 1020.8 |
| 20260904033027 | 66 | 309 | 0.0 | 0.0 | 0.00 | 0.00 | 0.00 | 77 | 1020.9 |
| 20260904031526 | 66 | 309 | 0.0 | 2.0 | 0.00 | 0.00 | 0.00 | 76 | 1020.8 |
| 20260904030024 | 66 | 318 | 0.0 | 3.0 | 0.00 | 0.00 | 0.00 | 76 | 1020.6 |
| 20260904024523 | 66 | 317 | 0.0 | 3.0 | 0.00 | 0.00 | 0.00 | 75 | 1020.6 |
| 20260904023022 | 66 | 326 | 2.0 | 5.0 | 0.00 | 0.00 | 0.00 | 75 | 1020.7 |
| 20260904021525 | 66 | 301 | 0.0 | 3.0 | 0.00 | 0.00 | 0.00 | 76 | 1020.7 |
| 20260904020020 | 67 | 300 | 0.0 | 2.0 | 0.00 | 0.00 | 0.00 | 76 | 1020.7 |
| 20260904014523 | 67 | 299 | 0.0 | 3.0 | 0.00 | 0.00 | 0.00 | 75 | 1020.7 |
| 20260904013020 | 68 | 313 | 1.0 | 3.0 | 0.00 | 0.00 | 0.00 | 74 | 1020.6 |
| 20260904011530 | 68 | 347 | 1.0 | 3.0 | 0.00 | 0.00 | 0.00 | 73 | 1020.6 |
| 20260904010029 | 68 | 177 | 1.0 | 4.0 | 0.00 | 0.00 | 0.00 | 74 | 1020.5 |
| 20260904004515 | 68 | 67 | 2.0 | 4.0 | 0.00 | 0.00 | 0.00 | 74 | 1020.4 |
| 20260904003014 | 68 | 283 | 1.0 | 3.0 | 0.00 | 0.00 | 0.00 | 74 | 1020.3 |
| 20260904001513 | 67 | 280 | 0.0 | 3.0 | 0.00 | 0.00 | 0.00 | 76 | 1020.5 |
| 20260904000013 | 68 | 298 | 1.0 | 3.0 | 0.00 | 0.00 | 0.00 | 75 | 1020.6 |
| 20260903234508 | 69 | 325 | 2.0 | 6.0 | 0.00 | 0.00 | 0.00 | 73 | 1020.5 |
| 20260903233005 | 69 | 360 | 2.0 | 4.0 | 0.00 | 0.00 | 0.00 | 72 | 1020.4 |
| 20260903231503 | 70 | 304 | 0.0 | 0.0 | 0.00 | 0.00 | 0.00 | 71 | 1020.3 |
| 20260903230001 | 70 | 304 | 0.0 | 2.0 | 0.00 | 0.00 | 0.00 | 71 | 1020.2 |
| 20260903224609 | 70 | 304 | 0.0 | 1.0 | 0.00 | 0.00 | 0.00 | 71 | 1020.0 |
| 20260903223059 | 71 | 304 | 0.0 | 3.0 | 0.00 | 0.00 | 0.00 | 70 | 1020.1 |
| 20260903221556 | 71 | 301 | 0.0 | 3.0 | 0.00 | 0.00 | 0.00 | 69 | 1020.2 |
| 20260903220109 | 71 | 313 | 1.0 | 3.0 | 0.00 | 0.00 | 0.00 | 70 | 1020.1 |
| 20260903214552 | 71 | 315 | 1.0 | 3.0 | 0.00 | 0.00 | 0.00 | 71 | 1019.9 |
| 20260903213052 | 72 | 316 | 0.0 | 0.0 | 0.00 | 0.00 | 0.00 | 70 | 1019.7 |
| 20260903211615 | 73 | 316 | 0.0 | 2.0 | 0.00 | 0.00 | 0.00 | 69 | 1019.5 |
| 20260903210055 | 73 | 316 | 0.0 | 0.0 | 0.00 | 0.00 | 0.00 | 68 | 1019.3 |
| 20260903204550 | 73 | 316 | 0.0 | 1.0 | 0.00 | 0.00 | 0.00 | 68 | 1019.3 |
| 20260903203050 | 74 | 316 | 0.0 | 2.0 | 0.00 | 0.00 | 0.00 | 68 | 1019.3 |
| 20260903201549 | 75 | 325 | 0.0 | 2.0 | 0.00 | 0.00 | 0.00 | 64 | 1019.2 |
| 20260903200048 | 75 | 325 | 0.0 | 3.0 | 0.00 | 0.00 | 0.00 | 63 | 1019.0 |
| 20260903194549 | 77 | 325 | 2.0 | 4.0 | 0.00 | 0.00 | 0.00 | 60 | 1018.9 |
| 20260903193048 | 79 | 175 | 1.0 | 5.0 | 0.00 | 0.00 | 0.00 | 54 | 1018.6 |
| 20260903191546 | 79 | 266 | 0.0 | 0.0 | 0.00 | 0.00 | 0.00 | 52 | 1018.4 |
| 20260903190047 | 80 | 266 | 0.0 | 0.0 | 0.00 | 0.00 | 0.00 | 51 | 1018.3 |
| 20260903184547 | 80 | 267 | 0.0 | 3.0 | 0.00 | 0.00 | 0.00 | 51 | 1018.2 |
| 20260903183045 | 81 | 205 | 2.0 | 7.0 | 0.00 | 0.00 | 0.00 | 50 | 1017.9 |
| 20260903181544 | 82 | 214 | 3.0 | 13.0 | 0.00 | 0.00 | 0.00 | 48 | 1017.6 |
| 20260903180048 | 82 | 341 | 3.0 | 5.0 | 0.00 | 0.00 | 0.00 | 47 | 1017.4 |
| 20260903174604 | 83 | 252 | 2.0 | 9.0 | 0.00 | 0.00 | 0.00 | 46 | 1017.2 |
| 20260903173045 | 83 | 304 | 3.0 | 8.0 | 0.00 | 0.00 | 0.00 | 46 | 1017.1 |
| 20260903171542 | 85 | 213 | 6.0 | 20.0 | 0.00 | 0.00 | 0.00 | 45 | 1017.0 |
| 20260903170104 | 85 | 150 | 9.0 | 20.0 | 0.00 | 0.00 | 0.00 | 44 | 1016.9 |
| 20260903164550 | 85 | 223 | 14.0 | 20.0 | 0.00 | 0.00 | 0.00 | 43 | 1016.7 |
| 20260903163041 | 86 | 215 | 7.0 | 20.0 | 0.00 | 0.00 | 0.00 | 41 | 1016.7 |
| 20260903161541 | 86 | 226 | 9.0 | 20.0 | 0.00 | 0.00 | 0.00 | 38 | 1016.7 |
| 20260903160038 | 86 | 237 | 6.0 | 15.0 | 0.00 | 0.00 | 0.00 | 36 | 1016.6 |
| 20260903154539 | 87 | 265 | 7.0 | 13.0 | 0.00 | 0.00 | 0.00 | 36 | 1016.6 |
| 20260903153044 | 87 | 260 | 3.0 | 15.0 | 0.00 | 0.00 | 0.00 | 38 | 1016.5 |
| 20260903151547 | 88 | 256 | 3.0 | 18.0 | 0.00 | 0.00 | 0.00 | 38 | 1016.5 |
| 20260903150037 | 89 | 217 | 9.0 | 15.0 | 0.00 | 0.00 | 0.00 | 34 | 1016.4 |
| 20260903144535 | 90 | 206 | 8.0 | 14.0 | 0.00 | 0.00 | 0.00 | 34 | 1016.4 |
| 20260903143032 | 90 | 161 | 8.0 | 13.0 | 0.00 | 0.00 | 0.00 | 34 | 1016.5 |
| 20260903141530 | 90 | 192 | 8.0 | 12.0 | 0.00 | 0.00 | 0.00 | 32 | 1016.7 |
| 20260903140028 | 90 | 136 | 7.0 | 14.0 | 0.00 | 0.00 | 0.00 | 31 | 1017.1 |
| 20260903134527 | 89 | 242 | 2.0 | 4.0 | 0.00 | 0.00 | 0.00 | 33 | 1017.6 |
| 20260903133021 | 89 | 270 | 0.0 | 4.0 | 0.00 | 0.00 | 0.00 | 32 | 1017.8 |
| 20260903131519 | 90 | 279 | 1.0 | 4.0 | 0.00 | 0.00 | 0.00 | 31 | 1017.7 |
| 20260903130017 | 88 | 295 | 1.0 | 4.0 | 0.00 | 0.00 | 0.00 | 34 | 1018.0 |
| 20260903124512 | 87 | 286 | 2.0 | 4.0 | 0.00 | 0.00 | 0.00 | 36 | 1017.9 |
| 20260903123010 | 87 | 329 | 2.0 | 4.0 | 0.00 | 0.00 | 0.00 | 37 | 1018.1 |
| 20260903121506 | 86 | 309 | 2.0 | 4.0 | 0.00 | 0.00 | 0.00 | 37 | 1018.4 |
| 20260903120004 | 85 | 314 | 1.0 | 4.0 | 0.00 | 0.00 | 0.00 | 37 | 1018.6 |
| 20260903114607 | 84 | 299 | 2.0 | 6.0 | 0.00 | 0.00 | 0.00 | 39 | 1018.8 |
| 20260903113059 | 84 | 355 | 4.0 | 6.0 | 0.00 | 0.00 | 0.00 | 39 | 1019.0 |
| 20260903111622 | 83 | 355 | 3.0 | 6.0 | 0.00 | 0.00 | 0.00 | 42 | 1019.3 |